Location: Anton
(37.3520°N, 87.3947°W)
Time: 00:51:22
(UTC+00:00)

N. Korean satellite - Pass Details

Date: 02 December 2022
Orbit: 407 x 442 km, 97.3° (Epoch: 05 February)

Event Time Altitude Azimuth Distance (km) Brightness Sun altitude
Rises 10:59:40 0° 13° (NNE) 2,517 10.2 -20.7°
Reaches altitude 10° 11:01:45 10° 15° (NNE) 1,631 9.2 -20.3°
Maximum altitude 11:05:15 75° 101° (E) 485 6.6 -19.6°
Drops below altitude 10° 11:08:40 10° 187° (S) 1,592 9.2 -18.9°
Sets 11:10:40 0° 189° (S) 2,451 10.2 -18.5°
